Temp
-11 -11 -11 -11 -11 -11 -11 -11 -11 -11 -11 -11 -11 -11 -11 -12 -12 -12 -12 -12 -12 -12 -12 -12 -12 -12 -13 -13 -13 -14 -14 -14 -14 -14 -14 -14 -14 -14 -14 -14 -14 -14
-11 -11 -11 -11 -11 -11 -11 -11 -11 -11 -11 -11 -11 -11 -12 -12 -12 -12 -12 -12 -12 -12 -12 -12 -12 -13 -13 -13 -14 -14 -14 -14 -14 -14 -14 -14 -14 -14 -14 -14 -14 -15
-11 -11 -11 -11 -11 -12 -11 -11 -11 -11 -11 -11 -11 -12 -12 -12 -11 -12 -12 -12 -12 -12 -12 -12 -13 -13 -13 -14 -14 -14 -14 -14 -14 -14 -14 -14 -14 -14 -14 -14 -15 -15
-12 -12 -11 -11 -12 -12 -11 -11 -11 -11 -11 -11 -11 -12 -12 -12 -11 -11 -12 -12 -12 -12 -13 -13 -13 -13 -14 -14 -14 -14 -14 -14 -14 -14 -14 -14 -14 -14 -14 -15 -15 -15
-12 -11 -11 -11 -12 -12 -12 -11 -11 -12 -12 -12 -12 -12 -12 -12 -12 -11 -11 -12 -12 -13 -13 -13 -13 -14 -14 -14 -14 -14 -14 -14 -14 -14 -14 -14 -14 -14 -15 -15 -15 -15
-12 -12 -12 -12 -12 -12 -12 -12 -12 -12 -12 -12 -12 -12 -12 -12 -12 -12 -12 -12 -12 -13 -13 -13 -14 -14 -14 -14 -14 -14 -14 -14 -14 -14 -14 -14 -14 -15 -15 -15 -15 -15
-12 -12 -12 -12 -12 -12 -12 -12 -12 -12 -12 -12 -12 -12 -13 -13 -12 -12 -12 -12 -13 -13 -13 -13 -14 -14 -14 -14 -14 -14 -14 -14 -14 -14 -14 -14 -14 -15 -15 -15 -15 -15
-12 -12 -12 -12 -12 -12 -12 -12 -12 -12 -12 -12 -12 -13 -13 -13 -12 -12 -12 -13 -13 -13 -13 -14 -14 -14 -14 -14 -14 -14 -14 -14 -14 -14 -14 -15 -15 -15 -15 -15 -15 -15
-12 -12 -12 -12 -12 -12 -12 -12 -12 -12 -12 -12 -13 -13 -13 -13 -13 -12 -13 -13 -13 -13 -14 -14 -14 -14 -14 -14 -14 -14 -14 -14 -14 -14 -15 -15 -15 -15 -15 -15 -15 -15
-12 -12 -12 -12 -12 -12 -12 -12 -12 -12 -12 -13 -13 -13 -13 -13 -13 -13 -13 -13 -13 -13 -14 -14 -14 -14 -14 -14 -14 -14 -14 -14 -15 -15 -15 -15 -15 -15 -15 -15 -15 -15
-13 -13 -12 -12 -12 -12 -12 -12 -12 -13 -13 -13 -13 -13 -13 -13 -13 -13 -13 -13 -13 -14 -14 -14 -14 -14 -14 -14 -14 -14 -14 -15 -15 -15 -15 -15 -15 -15 -15 -15 -15 -15
-13 -13 -13 -12 -12 -13 -12 -12 -12 -13 -13 -13 -13 -13 -13 -13 -13 -13 -13 -13 -14 -14 -14 -14 -14 -14 -14 -14 -14 -14 -14 -14 -14 -14 -14 -14 -15 -15 -15 -15 -15 -15
-13 -13 -13 -13 -13 -13 -12 -12 -12 -13 -13 -13 -13 -13 -13 -13 -13 -13 -13 -13 -14 -14 -14 -14 -14 -14 -14 -14 -14 -14 -14 -14 -14 -14 -14 -14 -14 -15 -15 -15 -15 -15
-13 -13 -13 -13 -13 -13 -13 -13 -13 -13 -13 -13 -13 -13 -13 -13 -13 -13 -13 -13 -13 -13 -14 -14 -14 -14 -14 -14 -14 -14 -14 -14 -14 -14 -14 -14 -15 -15 -15 -15 -15 -15
-13 -13 -13 -13 -13 -13 -13 -13 -13 -13 -13 -13 -13 -13 -13 -13 -13 -13 -13 -13 -13 -13 -14 -14 -14 -14 -14 -14 -14 -14 -14 -14 -14 -14 -14 -15 -15 -15 -15 -15 -15 -15
-13 -13 -13 -13 -13 -13 -13 -13 -13 -13 -13 -13 -13 -13 -13 -13 -13 -13 -13 -13 -13 -13 -14 -14 -14 -14 -14 -14 -14 -14 -14 -14 -14 -14 -14 -15 -15 -15 -15 -15 -15 -15
-13 -13 -13 -13 -13 -13 -13 -13 -13 -13 -13 -12 -13 -13 -13 -13 -13 -13 -13 -13 -13 -13 -13 -13 -13 -14 -14 -14 -14 -14 -14 -14 -14 -14 -15 -15 -15 -15 -15 -15 -15 -15
-13 -13 -13 -13 -13 -13 -13 -13 -13 -13 -13 -13 -13 -13 -13 -13 -13 -13 -13 -13 -13 -13 -13 -13 -13 -14 -14 -14 -14 -14 -14 -14 -14 -15 -15 -15 -15 -15 -15 -15 -15 -15
-13 -13 -13 -13 -13 -13 -13 -13 -13 -13 -13 -13 -13 -13 -13 -13 -13 -13 -13 -13 -13 -13 -13 -13 -14 -14 -14 -14 -14 -14 -14 -14 -15 -15 -15 -15 -15 -15 -15 -15 -15 -15
-13 -13 -13 -13 -13 -13 -13 -13 -13 -13 -13 -13 -13 -13 -13 -13 -13 -13 -13 -13 -13 -13 -14 -14 -14 -14 -14 -14 -14 -14 -14 -14 -15 -15 -15 -15 -15 -15 -15 -15 -15 -15
-13 -13 -13 -13 -13 -13 -13 -13 -13 -13 -13 -13 -13 -13 -13 -13 -13 -13 -13 -13 -14 -14 -14 -14 -14 -14 -14 -14 -14 -15 -15 -15 -15 -15 -15 -15 -15 -15 -15 -15 -15 -15
-14 -13 -13 -13 -13 -13 -13 -13 -13 -13 -13 -13 -13 -13 -13 -13 -13 -13 -13 -14 -14 -14 -14 -14 -14 -14 -14 -15 -15 -15 -15 -15 -15 -15 -15 -15 -15 -15 -15 -15 -15 -16
-14 -13 -13 -13 -13 -13 -13 -13 -13 -13 -13 -13 -13 -13 -13 -13 -13 -13 -14 -14 -14 -14 -14 -14 -14 -14 -15 -15 -15 -15 -15 -15 -15 -15 -15 -15 -15 -15 -15 -15 -16 -16
-14 -13 -13 -13 -13 -13 -13 -13 -13 -13 -13 -13 -13 -13 -13 -13 -13 -14 -14 -14 -14 -14 -14 -14 -14 -15 -15 -15 -15 -15 -15 -15 -15 -15 -15 -15 -15 -15 -15 -16 -16 -16
-14 -14 -13 -13 -13 -13 -13 -13 -13 -13 -13 -13 -14 -14 -14 -14 -14 -14 -14 -14 -15 -15 -15 -15 -15 -15 -15 -15 -15 -15 -15 -15 -15 -15 -15 -16 -16 -16 -16 -16 -16 -16
-14 -14 -13 -13 -13 -13 -13 -13 -13 -14 -14 -14 -14 -14 -14 -14 -14 -14 -14 -15 -15 -15 -15 -15 -15 -15 -15 -15 -15 -15 -15 -15 -15 -15 -16 -16 -16 -16 -16 -16 -16 -16
Height
5811 5811 5811 5812 5812 5812 5812 5812 5812 5812 5812 5812 5811 5810 5810 5809 5808 5807 5806 5805 5805 5804 5805 5805 5806 5806 5806 5807 5808 5808 5809 5810 5810 5811 5811 5811 5811 5810 5810 5809 5809 5808
5809 5809 5809 5809 5809 5810 5810 5810 5809 5809 5809 5809 5808 5808 5807 5806 5805 5804 5803 5803 5803 5803 5803 5803 5803 5804 5805 5806 5806 5807 5808 5808 5809 5809 5809 5809 5809 5808 5808 5808 5807 5806
5806 5806 5806 5806 5807 5807 5807 5807 5807 5807 5806 5806 5805 5805 5804 5803 5802 5800 5800 5801 5802 5801 5802 5802 5802 5802 5803 5804 5804 5805 5806 5807 5807 5807 5808 5807 5807 5807 5806 5806 5805 5804
5803 5804 5804 5804 5804 5804 5804 5804 5804 5804 5803 5803 5802 5802 5801 5801 5800 5799 5798 5799 5800 5800 5801 5801 5801 5801 5802 5803 5804 5805 5805 5805 5806 5806 5806 5806 5805 5805 5805 5804 5803 5802
5801 5801 5802 5802 5802 5802 5802 5801 5801 5801 5801 5800 5799 5799 5799 5799 5799 5798 5797 5798 5798 5799 5799 5799 5799 5800 5801 5802 5803 5803 5804 5804 5804 5804 5804 5804 5804 5803 5802 5802 5801 5799
5799 5799 5799 5799 5799 5799 5799 5799 5799 5798 5798 5798 5797 5797 5797 5797 5797 5797 5796 5797 5797 5797 5798 5798 5799 5800 5801 5802 5802 5802 5802 5803 5803 5803 5802 5802 5801 5801 5800 5799 5798 5797
5796 5796 5796 5797 5796 5796 5796 5796 5796 5796 5796 5795 5795 5795 5795 5796 5796 5795 5795 5795 5796 5796 5797 5798 5799 5799 5800 5801 5801 5801 5801 5801 5801 5801 5800 5800 5799 5798 5797 5796 5795 5794
5793 5794 5794 5794 5794 5794 5794 5793 5793 5793 5793 5793 5793 5793 5794 5794 5794 5794 5794 5794 5795 5796 5797 5798 5798 5798 5799 5799 5799 5799 5799 5799 5799 5798 5798 5797 5797 5796 5795 5794 5793 5791
5791 5791 5791 5791 5791 5791 5791 5791 5791 5791 5791 5791 5791 5792 5792 5792 5792 5792 5793 5794 5795 5796 5796 5797 5797 5797 5797 5798 5798 5797 5797 5797 5796 5796 5795 5795 5794 5793 5792 5791 5790 5789
5788 5789 5789 5789 5789 5789 5789 5789 5789 5789 5789 5789 5790 5790 5790 5791 5791 5791 5792 5793 5794 5795 5795 5795 5795 5796 5796 5796 5796 5795 5795 5794 5794 5793 5793 5792 5791 5790 5789 5788 5787 5785
5786 5787 5786 5786 5787 5787 5787 5787 5787 5787 5787 5788 5788 5788 5789 5789 5790 5790 5791 5792 5793 5793 5793 5794 5794 5794 5794 5794 5794 5793 5792 5792 5791 5791 5790 5789 5788 5787 5786 5785 5783 5782
5784 5784 5784 5784 5785 5785 5785 5785 5785 5786 5786 5786 5787 5787 5788 5788 5789 5789 5790 5791 5791 5792 5792 5792 5792 5792 5792 5792 5791 5791 5790 5789 5789 5788 5787 5786 5785 5784 5783 5781 5780 5779
5781 5781 5782 5782 5782 5783 5783 5783 5784 5784 5784 5785 5785 5786 5786 5787 5787 5788 5788 5789 5790 5790 5790 5790 5790 5790 5789 5789 5789 5788 5787 5787 5786 5785 5784 5783 5782 5781 5779 5777 5776 5775
5779 5779 5780 5780 5780 5780 5781 5781 5782 5782 5783 5783 5784 5785 5785 5785 5786 5786 5787 5788 5788 5788 5788 5788 5788 5787 5787 5787 5786 5785 5785 5784 5783 5782 5781 5780 5779 5777 5776 5774 5772 5771
5776 5776 5777 5778 5778 5778 5779 5779 5780 5780 5781 5781 5782 5783 5783 5784 5784 5785 5785 5786 5786 5786 5786 5786 5785 5785 5784 5784 5783 5783 5782 5781 5780 5779 5778 5777 5776 5774 5772 5770 5769 5768
5773 5774 5775 5775 5775 5776 5776 5777 5778 5778 5779 5779 5780 5781 5781 5782 5782 5783 5783 5783 5783 5783 5783 5783 5783 5782 5782 5781 5781 5780 5779 5778 5777 5776 5775 5774 5772 5770 5768 5767 5765 5764
5770 5771 5772 5772 5773 5773 5774 5775 5776 5777 5777 5778 5778 5779 5779 5780 5780 5781 5781 5781 5781 5781 5780 5780 5780 5779 5779 5778 5778 5777 5776 5775 5774 5773 5772 5770 5769 5767 5765 5764 5763 5761
5767 5768 5769 5770 5770 5771 5772 5773 5774 5774 5775 5775 5776 5776 5777 5777 5778 5778 5778 5778 5778 5778 5777 5777 5776 5776 5776 5775 5775 5774 5773 5772 5771 5770 5768 5767 5766 5764 5762 5761 5759 5758
5764 5765 5766 5767 5768 5768 5769 5771 5772 5772 5773 5773 5774 5774 5775 5775 5775 5775 5775 5775 5775 5775 5774 5774 5773 5773 5773 5772 5771 5771 5769 5768 5767 5766 5765 5764 5762 5760 5759 5758 5756 5755
5761 5762 5763 5764 5765 5766 5767 5768 5769 5770 5770 5770 5771 5771 5772 5772 5772 5772 5772 5772 5772 5771 5771 5770 5770 5770 5769 5769 5768 5767 5766 5765 5764 5763 5762 5760 5758 5757 5756 5755 5753 5752
5758 5760 5761 5762 5763 5764 5764 5765 5766 5767 5767 5768 5768 5768 5769 5769 5769 5770 5769 5769 5769 5768 5767 5767 5767 5767 5766 5765 5765 5764 5763 5762 5760 5759 5758 5756 5755 5753 5752 5751 5750 5749
5756 5757 5758 5759 5760 5761 5762 5762 5763 5764 5764 5765 5765 5766 5766 5766 5766 5767 5766 5766 5765 5765 5764 5763 5764 5763 5763 5762 5761 5760 5759 5758 5757 5756 5754 5753 5751 5750 5748 5747 5746 5745
5753 5754 5755 5757 5758 5758 5759 5760 5760 5761 5762 5762 5762 5763 5763 5763 5763 5764 5763 5763 5762 5761 5760 5760 5760 5760 5759 5758 5758 5757 5756 5754 5753 5752 5750 5749 5747 5746 5745 5743 5742 5741
5750 5751 5753 5754 5755 5756 5757 5757 5758 5759 5759 5759 5759 5759 5760 5760 5760 5760 5760 5760 5759 5757 5756 5756 5756 5756 5756 5755 5754 5753 5752 5750 5749 5748 5746 5745 5743 5742 5741 5740 5738 5737
5748 5749 5750 5751 5752 5753 5754 5754 5755 5755 5756 5756 5756 5756 5756 5756 5756 5757 5757 5756 5755 5754 5753 5753 5753 5753 5752 5751 5750 5749 5748 5746 5745 5744 5742 5741 5739 5738 5737 5736 5734 5733
5745 5746 5747 5748 5749 5750 5750 5751 5751 5752 5752 5752 5752 5752 5752 5752 5753 5753 5753 5752 5751 5750 5749 5749 5749 5749 5748 5746 5745 5744 5743 5742 5741 5740 5738 5737 5735 5734 5733 5732 5731 5729
Wind_Speed
19 18 17 17 17 17 18 18 18 19 19 20 22 23 23 23 23 23 21 18 15 14 14 13 12 11 11 11 10 8 8 10 10 10 9 9 8 9 11 13 15 17
18 17 17 17 17 17 17 18 18 18 18 20 21 22 22 21 23 23 21 18 17 17 15 12 10 10 10 10 9 8 9 10 10 10 9 9 9 10 12 14 17 19
16 16 17 18 17 17 17 17 17 18 18 20 21 21 20 20 21 21 19 18 16 14 12 9 7 8 9 9 9 9 10 10 10 10 10 10 10 12 14 16 18 20
16 16 18 18 17 17 18 17 17 18 19 20 21 20 19 17 16 14 11 11 9 6 7 7 7 7 8 8 9 9 9 10 10 10 10 11 12 13 15 17 19 21
17 18 18 18 17 17 17 17 18 18 19 20 20 19 16 14 13 10 6 5 5 6 7 7 7 7 8 9 9 9 9 10 11 11 11 12 13 15 17 19 21 22
17 17 17 17 16 16 16 17 18 19 19 18 17 16 12 10 10 9 6 6 7 8 7 6 7 8 8 8 8 9 10 10 11 11 12 13 15 17 18 20 22 23
17 16 15 14 14 15 16 17 18 18 17 17 15 13 11 10 11 10 8 8 7 6 7 7 8 8 8 8 9 9 10 11 12 12 14 15 17 18 20 22 24 25
15 13 12 12 13 14 15 17 17 16 15 15 14 12 12 12 13 10 7 6 6 7 8 8 7 7 8 8 9 10 11 12 13 14 15 17 18 20 21 23 25 25
13 11 11 13 13 14 15 15 15 14 14 14 13 13 13 13 13 9 6 6 7 8 8 7 7 8 9 9 9 11 12 13 14 16 17 18 19 21 23 24 25 26
12 11 11 12 13 14 14 14 13 14 14 13 13 13 13 13 11 7 6 7 8 8 8 8 8 9 10 10 11 12 14 15 16 17 19 20 21 23 24 26 27 28
12 11 11 12 12 13 13 13 13 13 13 12 12 12 12 12 10 7 7 8 8 9 9 9 10 11 11 12 13 15 16 17 18 20 21 22 23 25 26 28 29 30
12 12 12 12 12 13 13 13 13 13 13 12 12 12 12 11 10 9 9 9 10 11 11 11 12 12 13 14 15 17 18 19 21 22 23 24 26 27 28 30 31 31
13 13 12 12 12 13 13 14 13 13 13 12 12 12 12 12 11 10 10 11 12 13 12 13 14 14 15 16 17 19 20 21 23 24 25 26 28 29 30 32 32 32
14 14 13 12 13 14 14 14 14 13 13 13 12 12 12 12 12 12 12 13 14 14 14 15 16 16 17 18 19 20 21 22 23 24 25 27 29 30 32 33 32 30
16 15 13 13 14 15 15 15 14 13 14 13 13 13 13 14 14 14 14 14 14 15 16 16 17 17 18 18 19 20 21 22 23 24 26 28 29 30 32 32 29 25
17 17 15 14 15 16 16 15 15 14 15 14 13 14 14 15 15 15 15 15 15 16 17 17 17 18 18 19 19 20 21 22 24 25 26 26 27 28 29 29 25 22
18 18 16 15 17 17 17 16 15 15 16 15 14 14 15 16 16 15 15 16 16 17 17 18 18 18 19 19 20 20 22 23 24 25 25 25 26 27 26 25 24 23
20 19 17 17 18 18 18 17 16 17 17 16 16 16 16 16 16 16 16 17 17 17 18 18 19 19 19 20 20 21 23 24 24 24 25 25 26 26 25 25 24 23
21 19 17 18 19 19 18 17 17 18 18 18 18 17 17 17 17 17 17 18 18 18 19 19 19 19 20 20 21 22 23 24 24 25 25 25 26 26 26 24 24 23
20 19 18 19 19 19 19 19 18 19 19 19 19 18 18 18 18 18 18 19 19 19 20 20 20 20 20 21 22 23 23 24 24 25 25 25 26 27 26 25 24 24
19 19 19 19 20 20 20 20 19 19 19 20 19 19 19 19 19 19 19 20 20 20 21 21 20 20 21 22 23 23 23 24 25 25 25 26 26 27 26 25 25 26
19 19 20 20 20 20 20 20 20 19 19 19 20 20 20 20 20 20 20 20 20 21 22 22 21 21 22 23 23 24 24 26 26 26 26 27 27 27 27 27 27 28
20 20 20 20 20 20 19 19 19 19 19 20 20 21 21 22 22 21 21 21 21 22 24 24 22 22 22 24 24 25 26 28 28 27 27 27 27 27 27 28 28 29
20 20 19 19 18 18 18 18 18 18 19 21 22 22 22 23 22 22 21 21 22 24 25 25 23 23 23 25 26 26 27 29 29 28 28 28 28 28 28 29 30 30
18 18 18 18 18 17 18 19 20 20 21 22 23 23 23 23 23 22 22 22 23 25 26 25 24 23 24 26 26 27 28 29 30 29 28 29 29 29 29 30 31 31
17 18 18 18 18 18 19 20 21 21 22 23 24 24 24 24 24 24 24 24 25 26 26 25 24 24 26 27 28 29 29 30 30 29 29 29 30 30 30 31 32 32
Wind_Direction
260 261 263 266 270 276 280 285 289 288 290 292 292 294 294 296 298 297 296 292 283 275 268 267 276 275 263 255 251 248 242 239 242 250 261 270 279 290 300 307 311 313
259 261 264 268 272 277 282 285 288 288 291 291 290 293 295 297 300 297 289 282 277 273 268 270 277 267 254 251 251 245 241 243 252 262 270 276 284 294 302 306 309 310
260 263 267 272 276 282 284 285 287 289 290 290 291 294 296 299 305 299 283 272 274 275 272 272 268 257 250 249 245 241 244 253 262 269 274 281 290 297 301 304 307 308
262 267 270 275 280 283 283 283 283 285 287 288 290 294 297 300 306 302 281 269 272 270 266 265 259 252 248 244 242 243 252 262 269 273 279 287 292 296 299 303 306 307
263 268 271 276 279 281 279 278 279 281 285 286 288 294 298 296 293 293 289 280 276 269 262 258 250 243 237 236 242 252 262 270 273 277 282 287 291 294 299 302 304 305
265 269 272 275 276 275 274 275 278 282 285 286 289 293 294 287 283 287 293 285 276 270 260 245 234 229 231 240 251 261 268 273 275 279 283 286 290 293 297 299 302 305
267 268 270 272 271 270 273 277 281 284 286 287 287 286 282 281 285 289 287 278 267 254 236 226 225 228 239 251 260 266 271 275 278 281 284 286 290 293 296 299 302 305
263 262 264 267 267 271 276 279 283 284 285 284 279 276 276 282 286 286 278 260 241 229 222 224 231 241 251 258 265 272 275 280 283 284 286 288 292 295 297 300 302 305
255 255 260 264 267 274 277 278 282 285 285 281 274 272 276 281 282 276 259 234 227 226 228 235 245 251 257 264 271 277 281 285 287 288 290 293 296 298 300 302 303 304
248 250 257 263 268 273 273 274 280 283 283 279 274 274 275 276 271 256 236 230 231 235 239 246 253 257 264 270 276 282 287 290 292 293 296 298 299 300 301 302 303 303
244 246 255 262 267 269 269 272 276 279 279 275 272 271 269 264 255 238 231 235 239 244 247 253 259 263 269 274 279 285 290 292 295 297 299 300 301 301 302 302 302 303
242 245 254 261 265 265 266 270 273 272 270 267 265 263 259 252 243 233 235 240 244 249 253 258 264 269 273 277 282 286 290 294 297 299 300 301 301 302 302 301 301 303
240 243 251 258 262 262 263 267 269 265 261 259 258 255 250 246 242 239 240 244 249 254 259 264 268 273 276 280 285 289 292 296 298 300 302 302 302 302 301 300 302 304
240 242 247 255 258 258 261 264 265 261 256 254 253 250 248 247 246 245 245 249 255 260 264 268 272 276 280 284 289 291 295 298 300 302 303 302 302 301 300 300 303 304
239 239 242 249 253 255 257 261 261 258 253 252 251 250 249 249 249 249 250 256 261 265 268 272 276 281 285 289 292 295 298 299 300 302 303 302 302 301 300 302 305 304
239 237 238 244 249 251 253 255 257 254 252 251 250 250 250 250 252 254 257 262 266 269 273 278 281 285 288 292 294 297 298 298 299 301 302 303 303 302 303 306 306 303
237 235 236 240 245 248 250 251 252 251 251 251 249 250 251 253 257 260 263 266 269 273 277 280 283 286 290 293 294 295 295 296 299 301 302 303 303 302 303 304 301 299
234 234 235 238 242 246 247 248 249 249 250 249 249 250 252 256 260 263 265 268 271 275 278 280 283 287 290 292 292 292 293 296 299 300 300 302 302 301 301 299 297 297
232 233 235 237 240 244 246 247 247 247 248 248 249 251 253 257 261 264 267 270 273 276 278 280 284 287 289 289 290 291 293 296 298 298 300 301 301 300 299 296 295 297
232 233 234 235 238 242 245 246 246 245 246 248 250 252 255 259 262 265 268 270 272 275 277 280 283 285 286 287 288 290 293 294 296 297 298 299 298 298 296 292 291 293
232 233 234 234 236 239 242 245 246 246 246 247 250 253 257 260 263 265 267 269 272 275 277 279 281 282 284 286 287 289 291 293 295 296 296 296 296 295 292 288 287 290
232 233 234 234 236 239 242 244 246 246 247 249 253 256 258 260 263 265 267 269 272 275 277 278 279 282 285 286 287 289 291 292 293 293 293 293 293 292 289 286 286 289
233 234 236 237 239 241 243 245 247 248 251 253 256 258 259 261 264 266 268 271 273 275 276 277 279 283 286 287 288 290 290 290 291 291 291 291 291 290 287 284 285 289
234 237 238 240 243 244 246 249 251 253 254 256 258 260 261 263 265 267 270 272 273 274 274 277 281 286 288 288 289 290 289 289 289 290 289 289 289 288 286 283 284 287
238 241 244 246 248 250 252 254 256 257 258 259 260 262 264 265 267 269 270 271 271 271 273 277 282 286 287 288 290 292 291 290 290 289 289 288 288 287 285 282 283 286
243 247 250 253 255 257 258 259 260 260 260 260 261 262 264 266 267 268 268 269 270 273 276 280 283 285 288 291 294 295 294 292 291 289 288 287 287 286 285 283 282 285